Location: Fort Worth, Tx
(32.7431°N, 97.3695°W)
Time: 11:02:39
(UTC-04:00)

Tiros 1 - Pass Details

Date: 26 February 2024
Orbit: 625 x 657 km, 48.4° (Epoch: 24 April)

Event Time Altitude Azimuth Distance (km) Brightness Sun altitude
Rises 20:31:42 0° 219° (SW) 2,950 11.1 -15.0°
Reaches altitude 10° 20:34:03 10° 216° (SW) 2,047 10.2 -15.5°
Maximum altitude 20:38:42 59° 137° (SE) 753 7.2 -16.4°
Enters shadow 20:40:59 29° 68° (ENE) 1,205 8.0 -16.9°
